Location: Narrabri
(30.3170°S, 149.7830°E)
Time: 01:02:47
(UTC+11:00)

N. Korean satellite - Visible Passes

Search period start: 22 October 2017 00:00
Search period end: 01 November 2017 00:00
Orbit: 459 x 517 km, 97.2° (Epoch: 21 October)

Date Brightness Start Highest point End Pass type
(mag) Time Alt. Az. Time Alt. Az. Time Alt. Az.
22 Oct 7.2 19:56:13 10° S 19:59:57 62° WSW 20:03:34 10° NNW visible
24 Oct 10.0 20:44:30 10° SW 20:46:29 14° WSW 20:48:25 10° WNW visible
25 Oct 9.0 20:20:06 10° SSW 20:23:19 27° WSW 20:26:27 10° NW visible
26 Oct 7.3 19:56:24 10° S 20:00:05 60° WSW 20:03:40 10° NNW visible
28 Oct 10.0 20:44:42 10° SW 20:46:34 13° WSW 20:48:25 10° W visible
29 Oct 9.0 20:20:15 10° SSW 20:23:24 27° WSW 20:26:29 10° NW visible
30 Oct 7.3 19:56:30 10° S 20:00:09 59° WSW 20:03:41 10° NNW visible
